When you browse on this site, cookies collect data to enhance your experience and personalize the content and advertising you see.
Visit our Privacy Policy to learn more. By continuing to use the site, you agree to this use of cookies and data.
  • In Hungary
  • List of Countries
  • For 7 days
  • Water Temperature
  • Weather Map
  • News
  • Weather Widgets
  • user-avatar
    Login

    Hourly Weather Suhlovo

    Today, 20 January, Monday

    Time Temperature Precipitation Wind Pressure Humidity
    00:00 0°C° 0 mm 5 mps 746 mmHg 89%
    01:00 0°C° 0 mm 5 mps 747 mmHg 88%
    02:00 0°C° 0 mm 5 mps 747 mmHg 89%
    03:00 -1°C° 0 mm 5 mps 747 mmHg 90%
    04:00 -1°C° 0 mm 5 mps 747 mmHg 90%
    05:00 -1°C° 0 mm 5 mps 747 mmHg 90%
    06:00 -1°C° 0 mm 5 mps 747 mmHg 90%
    07:00 -1°C° 0 mm 5 mps 747 mmHg 91%
    08:00 -1°C° 0 mm 5 mps 747 mmHg 91%
    09:00 -1°C° 0 mm 5 mps 747 mmHg 92%
    10:00 -1°C° 0 mm 5 mps 747 mmHg 92%
    11:00 -1°C° 0 mm 5 mps 747 mmHg 93%
    12:00 -1°C° 0 mm 5 mps 747 mmHg 93%
    13:00 -1°C° 0 mm 5 mps 747 mmHg 92%
    14:00 -1°C° 0 mm 5 mps 747 mmHg 90%
    15:00 -1°C° 0 mm 5 mps 746 mmHg 87%
    16:00 -1°C° 0 mm 5 mps 746 mmHg 85%
    17:00 -1°C° 0 mm 5 mps 745 mmHg 83%
    18:00 -1°C° 0 mm 5 mps 745 mmHg 83%
    19:00 -1°C° 0 mm 5 mps 744 mmHg 83%
    20:00 -2°C° 0 mm 5 mps 744 mmHg 84%
    21:00 -2°C° 0 mm 5 mps 743 mmHg 85%
    22:00 -2°C° 0 mm 5 mps 743 mmHg 86%
    23:00 -2°C° 0 mm 5 mps 742 mmHg 88%

    Tomorrow, 21 January, Tuesday

    Time Temperature Precipitation Wind Pressure Humidity
    00:00 -2°C° 0 mm 5 mps 741 mmHg 89%
    01:00 -1°C° 0 mm 5 mps 740 mmHg 90%
    02:00 -1°C° 0 mm 5 mps 740 mmHg 91%
    03:00 -1°C° 0.3 mm 5 mps 739 mmHg 90%
    04:00 -2°C° 0.3 mm 6 mps 738 mmHg 90%
    05:00 -1°C° 0.3 mm 6 mps 737 mmHg 90%
    06:00 -1°C° 0.2 mm 6 mps 736 mmHg 91%
    07:00 -1°C° 0.2 mm 6 mps 736 mmHg 91%
    08:00 +1°C° 0.2 mm 6 mps 735 mmHg 91%
    09:00 +1°C° 0.4 mm 6 mps 734 mmHg 91%
    10:00 +2°C° 0.4 mm 6 mps 734 mmHg 91%
    11:00 +2°C° 0.4 mm 6 mps 733 mmHg 90%
    12:00 +2°C° 0.4 mm 6 mps 733 mmHg 91%
    13:00 +2°C° 0.4 mm 5 mps 732 mmHg 92%
    14:00 +3°C° 0.4 mm 5 mps 731 mmHg 93%
    15:00 +2°C° 1.7 mm 5 mps 730 mmHg 93%
    16:00 +2°C° 1.7 mm 5 mps 730 mmHg 94%
    17:00 +2°C° 1.7 mm 5 mps 729 mmHg 94%
    18:00 +1°C° 0.2 mm 6 mps 729 mmHg 87%
    19:00 +1°C° 0.2 mm 6 mps 729 mmHg 80%
    20:00 -1°C° 0.2 mm 7 mps 730 mmHg 74%
    21:00 -2°C° 0 mm 7 mps 730 mmHg 74%
    22:00 -3°C° 0 mm 6 mps 730 mmHg 75%
    23:00 -3°C° 0 mm 6 mps 730 mmHg 75%

    Day after tomorrow, 22 January, Wednesday

    Time Temperature Precipitation Wind Pressure Humidity
    00:00 -3°C° 0 mm 6 mps 730 mmHg 76%
    01:00 -4°C° 0 mm 6 mps 730 mmHg 78%
    02:00 -4°C° 0 mm 6 mps 730 mmHg 79%
    03:00 -4°C° 0.1 mm 6 mps 729 mmHg 82%
    04:00 -4°C° 0.1 mm 6 mps 728 mmHg 84%
    05:00 -4°C° 0.1 mm 6 mps 728 mmHg 87%
    06:00 -4°C° 0.2 mm 6 mps 727 mmHg 88%
    07:00 -4°C° 0.2 mm 5 mps 726 mmHg 89%
    08:00 -4°C° 0.2 mm 5 mps 726 mmHg 91%
    09:00 -4°C° 0.5 mm 5 mps 726 mmHg 88%
    10:00 -4°C° 0.5 mm 6 mps 725 mmHg 85%
    11:00 -4°C° 0.5 mm 6 mps 725 mmHg 82%
    12:00 -4°C° 0.2 mm 6 mps 725 mmHg 77%
    13:00 -4°C° 0.2 mm 6 mps 725 mmHg 73%
    14:00 -4°C° 0.2 mm 6 mps 726 mmHg 69%
    15:00 -4°C° 0.1 mm 5 mps 726 mmHg 74%
    16:00 -5°C° 0.1 mm 5 mps 726 mmHg 78%
    17:00 -5°C° 0.1 mm 5 mps 727 mmHg 83%
    18:00 -5°C° 0 mm 5 mps 727 mmHg 83%
    19:00 -5°C° 0 mm 5 mps 728 mmHg 83%
    20:00 -6°C° 0 mm 5 mps 728 mmHg 83%
    21:00 -6°C° 0.1 mm 5 mps 729 mmHg 81%
    22:00 -6°C° 0.1 mm 6 mps 729 mmHg 78%
    23:00 -8°C° 0.1 mm 6 mps 730 mmHg 76%

    23 January, Thursday

    Time Temperature Precipitation Wind Pressure Humidity
    00:00 -8°C° 0 mm 6 mps 731 mmHg 76%
    01:00 -9°C° 0 mm 6 mps 732 mmHg 76%
    02:00 -9°C° 0 mm 6 mps 732 mmHg 76%
    03:00 -9°C° 0 mm 6 mps 733 mmHg 73%
    04:00 -9°C° 0 mm 6 mps 733 mmHg 69%
    05:00 -9°C° 0 mm 6 mps 734 mmHg 65%
    06:00 -9°C° 0 mm 6 mps 734 mmHg 63%
    07:00 -9°C° 0 mm 6 mps 734 mmHg 61%
    08:00 -9°C° 0 mm 6 mps 734 mmHg 58%
    09:00 -9°C° 0 mm 6 mps 735 mmHg 59%
    10:00 -8°C° 0 mm 6 mps 735 mmHg 61%
    11:00 -8°C° 0 mm 7 mps 735 mmHg 62%
    12:00 -8°C° 0 mm 6 mps 736 mmHg 59%
    13:00 -8°C° 0 mm 6 mps 736 mmHg 56%
    14:00 -8°C° 0 mm 6 mps 737 mmHg 53%
    15:00 -7°C° 0 mm 5 mps 737 mmHg 56%
    16:00 -8°C° 0 mm 4 mps 738 mmHg 58%
    17:00 -8°C° 0 mm 4 mps 738 mmHg 61%
    18:00 -8°C° 0 mm 3 mps 738 mmHg 62%
    19:00 -8°C° 0 mm 3 mps 739 mmHg 63%
    20:00 -7°C° 0 mm 2 mps 739 mmHg 65%
    21:00 -7°C° 0 mm 2 mps 739 mmHg 66%
    22:00 -6°C° 0 mm 2 mps 739 mmHg 67%
    23:00 -6°C° 0 mm 2 mps 739 mmHg 69%

    24 January, Friday

    Time Temperature Precipitation Wind Pressure Humidity
    00:00 -7°C° 0 mm 3 mps 738 mmHg 75%
    01:00 -6°C° 0 mm 3 mps 737 mmHg 81%
    02:00 -7°C° 0 mm 4 mps 737 mmHg 87%
    03:00 -5°C° 0.2 mm 4 mps 736 mmHg 89%
    04:00 -6°C° 0.2 mm 5 mps 735 mmHg 91%
    05:00 -5°C° 0.2 mm 5 mps 734 mmHg 93%
    06:00 -5°C° 0.3 mm 5 mps 734 mmHg 93%
    07:00 -5°C° 0.3 mm 5 mps 733 mmHg 93%
    08:00 -4°C° 0.3 mm 4 mps 733 mmHg 93%
    09:00 -3°C° 0 mm 4 mps 733 mmHg 94%
    10:00 -1°C° 0 mm 4 mps 732 mmHg 94%
    11:00 0°C° 0 mm 4 mps 732 mmHg 95%
    12:00 0°C° 0 mm 4 mps 732 mmHg 94%
    13:00 +1°C° 0 mm 4 mps 732 mmHg 93%
    14:00 +1°C° 0 mm 5 mps 732 mmHg 92%
    15:00 +1°C° 0 mm 4 mps 732 mmHg 92%
    16:00 +1°C° 0 mm 4 mps 733 mmHg 93%
    17:00 0°C° 0 mm 4 mps 733 mmHg 93%
    18:00 0°C° 0 mm 4 mps 733 mmHg 94%
    19:00 +1°C° 0 mm 3 mps 733 mmHg 95%
    20:00 +1°C° 0 mm 2 mps 733 mmHg 96%
    21:00 +1°C° 0.1 mm 2 mps 733 mmHg 96%
    22:00 +1°C° 0.1 mm 2 mps 733 mmHg 97%
    23:00 +1°C° 0.1 mm 2 mps 733 mmHg 97%

    25 January, Saturday

    Time Temperature Precipitation Wind Pressure Humidity
    00:00 +1°C° 0.3 mm 3 mps 733 mmHg 97%
    01:00 +1°C° 0.3 mm 3 mps 732 mmHg 97%
    02:00 +1°C° 0.3 mm 3 mps 732 mmHg 97%
    03:00 +1°C° 0.4 mm 3 mps 732 mmHg 97%
    04:00 0°C° 0.4 mm 4 mps 732 mmHg 96%
    05:00 0°C° 0.4 mm 4 mps 731 mmHg 96%
    06:00 0°C° 0.4 mm 4 mps 731 mmHg 96%
    07:00 0°C° 0.4 mm 4 mps 731 mmHg 96%
    08:00 0°C° 0.4 mm 4 mps 731 mmHg 96%
    09:00 +2°C° 0.3 mm 3 mps 732 mmHg 96%
    10:00 +2°C° 0.3 mm 3 mps 732 mmHg 96%
    11:00 +2°C° 0.3 mm 3 mps 732 mmHg 96%
    12:00 +2°C° 0.2 mm 3 mps 733 mmHg 96%
    13:00 +2°C° 0.2 mm 3 mps 733 mmHg 96%
    14:00 +2°C° 0.2 mm 3 mps 733 mmHg 95%
    15:00 +1°C° 0 mm 3 mps 734 mmHg 95%
    16:00 +2°C° 0 mm 2 mps 734 mmHg 95%
    17:00 +1°C° 0 mm 2 mps 734 mmHg 95%
    18:00 +1°C° 0 mm 2 mps 735 mmHg 96%
    19:00 -1°C° 0 mm 2 mps 735 mmHg 96%
    20:00 -1°C° 0 mm 2 mps 735 mmHg 97%
    21:00 -1°C° 0 mm 2 mps 735 mmHg 97%
    22:00 -1°C° 0 mm 2 mps 736 mmHg 97%
    23:00 -1°C° 0 mm 2 mps 736 mmHg 97%
    Show more